Tracking 29967 objects as of 5-Dec-2024
HD Live streaming from Space Station
objects crossing your sky now

STARLINK-11108

Track STARLINK-11108 now!
10-day predictions
STARLINK-11108 is classified as:


NORAD ID: 59712
Int'l Code: 2024-088E
Perigee: 366.1 km
Apogee: 367.6 km
Inclination: 53.2 °
Period: 91.7 minutes
Semi major axis: 6737 km
RCS: Unknown
Launch date: May 10, 2024
Source: United States (US)
Launch site: AIR FORCE WESTERN TEST RANGE (AFWTR)
Your satellite tracking list
Your tracking list is empty




NASA's NSSDC Master Catalog

Two Line Element Set (TLE):
1 59712U 24088E   24340.52723240  .00001384  00000-0  16275-4 0  9995
2 59712  53.1568  69.9184 0001161  47.7120 312.3997 15.69719042 34152
Source of the keplerian elements: AFSPC